Preview of NWS' New Version of Forecast
This preview is not operational and should not be used for support decisions.

Regional Weather Roundup (RWR)

Issued by National Weather Service (NWS)

                            
824 
ASUS43 KLSX 261357
RWRMO 

WEATHER SUMMARY FOR MISSOURI
NATIONAL WEATHER SERVICE SPRINGFIELD MO
900 AM CDT TUE MAR 26 2019

NOTE: "FAIR" INDICATES FEW OR NO CLOUDS BELOW 12,000 FEET WITH NO
       SIGNIFICANT WEATHER AND/OR OBSTRUCTIONS TO VISIBILITY.
       CURRENT SKY AND/OR WEATHER CONDITIONS ARE NOT AVAILABLE FOR
       CHILLICOTHE AND FARMINGTON.

MOZ001>031-035>038-043-044-053-054-261500-
...NORTHERN AND WESTERN MISSOURI...
  
CITY           SKY/WX    TMP DP  RH WIND       PRES   REMARKS
KANSAS CTY INT PTSUNNY   43  39  86 SE7       30.39R FOG              
LEE'S SUMMIT   CLOUDY    42  37  82 E5        30.40R                  
ST JOSEPH      CLOUDY    42  40  92 NE3       30.41R                  
CHILLICOTHE      N/A     42  35  76 E7        30.42R                  
     
$$
MOZ066>068-077>081-088>096-101>105-261500-
...SOUTHWEST MISSOURI...
  
CITY           SKY/WX    TMP DP  RH WIND       PRES   REMARKS
SPRINGFIELD    SUNNY     47  38  71 E6        30.36R                  
JOPLIN         MOSUNNY   43  43 100 CALM      30.38R FOG              
BRANSON        SUNNY     45  45 100 CALM      30.38R FOG              
               
$$
MOZ032>034-039>042-045>050-055>058-069>072-261500-
...CENTRAL MISSOURI...  
  
CITY           SKY/WX    TMP DP  RH WIND       PRES   REMARKS
COLUMBIA       NOT AVBL                                               
JEFFERSON CITY MOSUNNY   43  27  53 E3        30.42R                  
ROLLA          SUNNY     41  27  57 NE6       30.40R                  
SEDALIA        SUNNY     44  35  70 E9        30.41R                  
WARRENSBURG    CLOUDY    41  36  81 E5        30.40S                  
               
$$
MOZ051-052-059>065-261500-
...EAST CENTRAL MISSOURI...
  
CITY           SKY/WX    TMP DP  RH WIND       PRES   REMARKS
ST LOUIS INTL  MOSUNNY   36  22  56 NE6       30.42R                  
                   
$$
MOZ072>076-082>087-097>100-106>115-261500-
...SOUTH CENTRAL AND SOUTHEAST MISSOURI...
  
CITY           SKY/WX    TMP DP  RH WIND       PRES   REMARKS
CAPE GIRARDEAU FAIR      43  33  68 N12       30.38R                  
POPLAR BLUFF   FAIR      45  36  70 NE8       30.37R                  
WEST PLAINS    CLOUDY    44  36  73 NE8       30.37R                  
                                       
$$